This demonstration page uses our WeatherBlox Daily Observations layout. Learn more.

Left ArrowRight Arrow

39.01783, -85.05884

Hourly Observations for May 9, 2018

Temp ( °F °C ) Dew Point ( °F °C ) Humidity (%) Winds ( mph kmh ) Pressure ( in mb ) Visibility ( mi km ) Precip ( " mm )
3:52 am 03:52 Mostly Clear 57 13.9 50 10 78 78 Calm 30.01 1016 10 16 0.00 0.00
4:52 am 04:52 Mostly Clear 57 13.9 49 9.4 74 74 Calm 30.01 1016 10 16 0.00 0.00
5:52 am 05:52 Partly Cloudy 52 11.1 47 8.3 83 83 Calm 30.01 1016 10 16 0.00 0.00
6:52 am 06:52 Partly Cloudy 53 11.7 48 8.9 83 83 SW 3 6 30.02 1017 10 16 0.00 0.00
7:52 am 07:52 Partly Cloudy 56 13.3 53 11.7 90 90 S 5 7 30.02 1017 10 16 0.00 0.00
8:52 am 08:52 Partly Cloudy 66 18.9 55 12.8 68 68 S 8 13 30.01 1016 10 16 0.00 0.00
9:52 am 09:52 Partly Cloudy 71 21.7 56 13.3 59 59 S 8 13 30.00 1016 10 16 0.00 0.00
10:52 am 10:52 Mostly Cloudy 75 23.9 54 12.2 48 48 S 13 20 30.00 1016 10 16 0.00 0.00
11:52 am 11:52 Mostly Cloudy 75 23.9 53 11.7 46 46 SSW 10 17 29.99 1016 10 16 0.00 0.00
12:52 pm 12:52 Mostly Cloudy 77 25 55 12.8 47 47 S 17 28 29.96 1015 10 16 0.00 0.00
1:52 pm 13:52 Mostly Cloudy 78 25.6 56 13.3 47 47 S 18 30 29.94 1014 10 16 0.00 0.00
2:07 pm 14:07 Mostly Cloudy with Thunderstorms 78 25.6 56 13.3 47 47 S 20 31 29.94 1014 10 16 0.00 0.00
2:52 pm 14:52 Mostly Cloudy with Thunderstorms 71 21.7 59 15 66 66 S 12 19 29.94 1014 10 16 0.00 0.03
3:15 pm 15:15 Mostly Cloudy 72 22.2 60 15.6 66 66 S 16 26 29.91 1013 10 16 0.00 0.00
3:52 pm 15:52 Mostly Cloudy 75 23.9 60 15.6 60 60 S 16 26 29.91 1013 10 16 0.00 0.00
4:52 pm 16:52 Mostly Cloudy 78 25.6 60 15.6 54 54 S 16 26 29.88 1012 10 16 0.00 0.00
5:52 pm 17:52 Mostly Cloudy 79 26.1 61 16.1 54 54 SSW 9 15 29.87 1011 10 16 0.00 0.00
6:20 pm 18:20 Mostly Cloudy with Thunderstorms 76 24.4 58 14.4 54 54 SW 16 26 29.88 1012 5 8 0.00 0.03
6:52 pm 18:52 Cloudy with Thunderstorms 69 20.6 61 16.1 76 76 S 10 17 29.85 1011 10 16 0.02 0.51
7:03 pm 19:03 Cloudy with Light Rain 70 21.1 61 16.1 73 73 S 12 19 29.85 1011 10 16 0.00 0.03
7:52 pm 19:52 Mostly Cloudy 69 20.6 61 16.1 76 76 S 9 15 29.85 1011 10 16 0.00 0.03
8:52 pm 20:52 Partly Cloudy 71 21.7 59 15 66 66 S 14 22 29.82 1010 10 16 0.00 0.00
9:52 pm 21:52 Mostly Cloudy 72 22.2 59 15 64 64 S 10 17 29.83 1010 10 16 0.00 0.00
10:52 pm 22:52 Mostly Cloudy 72 22.2 59 15 64 64 S 12 19 29.83 1010 10 16 0.00 0.00
11:52 pm 23:52 Partly Cloudy 73 22.8 58 14.4 59 59 S 15 24 29.83 1010 10 16 0.00 0.00

Powered by AerisWeather